User: anonymous
Location: Unspecified
(0.0000°N, 0.0000°E)
Time: 07:04:53
(UTC+00:00)
Language:

ETS 8 - Orbit

View from above orbital plane
View from above orbital plane
View from above satellite
View from above satellite

Ground track
Ground track

The orbit data is extracted from the following two-line orbital elements,

1 29656U 06059A   14292.66790127 -.00000244  00000-0  00000+0 0  5215
2 29656 003.7631 065.6697 0005283 129.8537 218.7471 01.00272708 28739
Epoch (UTC): 19 October 2014 16:01:46
Eccentricity: 0.0005283
inclination: 3.7631°
perigee height: 35763 km
apogee height: 35808 km
right ascension of ascending node: 65.6697°
argument of perigee: 129.8537°
revolutions per day: 1.00272708
mean anomaly at epoch: 218.7471°
orbit number at epoch: 2873

The dashed part of the orbit path shows where the satellite is in the earth's shadow,  

DLR